Regional Weather Roundup
Issued by NWS

Home | Current Version | Previous Version | Graphics & Text | Print | Product List | Glossary On
Versions: 1 2 3 4 5 6 7 8 9 10 11 12 13 14 15 16 17 18 19 20 21 22 23 24 25 26 27 28 29 30 31 32 33 34 35 36 37 38 39 40 41 42 43 44 45 46 47 48 49 50
000
ASUS43 KMKX 280111
RWRWI

WISCONSIN REGIONAL WEATHER ROUNDUP
NATIONAL WEATHER SERVICE MILWAUKEE/SULLIVAN WI
800 PM CDT SAT MAY 27 2017

NOTE: "FAIR" INDICATES FEW OR NO CLOUDS BELOW 12,000 FEET WITH NO
SIGNIFICANT WEATHER AND/OR OBSTRUCTIONS TO VISIBILITY.

WIZ001-002-006>008-014>016-023>028-280200-
NORTHWEST WISCONSIN

CITY           SKY/WX    TMP DP  RH WIND       PRES   REMARKS
SUPERIOR ARPT  NOT AVBL
ASHLAND        CLOUDY    70  43  37 S6        29.80R
HAYWARD        CLOUDY    67  46  47 S8        29.84R
SIREN          CLEAR     67  44  43 CALM      29.84S
CUMBERLAND     CLOUDY    61  50  67 SW9       29.86S
RICE LAKE      CLOUDY    65  50  58 SW8       29.88R
CHETEK         CLOUDY    64  51  62 SW7       29.87R
LADYSMITH      MOCLDY    65  51  62 S7        29.88R
EAU CLAIRE     CLOUDY    66  47  50 SW6       29.86S
MENOMONIE      CLOUDY    66  49  53 SW7       29.88R
NEW RICHMOND   CLEAR     64  49  58 SW7       29.86F
OSCEOLA        CLEAR     68  46  45 SW8       29.88R
$$

WIZ003>005-009-010-017-018-280200-
NORTH CENTRAL WISCONSIN

CITY           SKY/WX    TMP DP  RH WIND       PRES   REMARKS
MANITOWISH WTR CLOUDY    64  49  58 SW3       29.85R
ARBOR VITAE    PTCLDY    65  47  51 CALM      29.85S
WOODRUFF       PTCLDY    65  47  51 CALM      29.85S
RHINELANDER    CLOUDY    66  48  52 W9        29.86S
EAGLE RIVER    CLOUDY    63  46  54 SW6       29.85S
LAND O LAKES   CLOUDY    66  45  46 N5        29.87R
PHILLIPS       CLOUDY    65  48  52 SW3       29.86R
TOMAHAWK       CLOUDY    63  47  56 W5        29.87R
MEDFORD        CLOUDY    63  49  60 W6        29.87S
MERRILL        CLOUDY    64  52  64 W5        29.86S
$$

WIZ029-030-035-036-043>047-280200-
CENTRAL WISCONSIN

CITY           SKY/WX    TMP DP  RH WIND       PRES   REMARKS
WAUSAU         CLOUDY    65  49  56 W7        29.84S
MOSINEE        CLOUDY    64  52  63 W6        29.88R
MARSHFIELD     CLOUDY    64  51  62 W6        29.86S
STEVENS POINT  CLOUDY    65  50  57 CALM      29.86S
WAUPACA        CLOUDY    72  51  48 W3        29.84S
WAUTOMA        CLOUDY    69  55  60 W5        29.85S
WISC RAPIDS    CLOUDY    68  54  60 CALM      29.87R
CAMP DOUGLAS   CLOUDY    63  55  73 W5        29.87R
$$

WIZ011>013-019>022-031-037>040-048>050-280200-
NORTHEAST WISCONSIN

CITY           SKY/WX    TMP DP  RH WIND       PRES   REMARKS
ANTIGO         CLOUDY    63  52  67 W6        29.86S
SHAWANO        MOCLDY    72  51  47 W3        29.83S
OCONTO         MOCLDY    69  58  66 CALM      29.81R
STURGEON BAY   CLEAR     62  52  69 S10       29.83F
GREEN BAY      MOCLDY    72  60  66 S6        29.82R
MANITOWOC      CLEAR     62  52  69 CALM      29.85R
APPLETON       MOCLDY    70  54  56 SW5       29.82R
CLINTONVILLE   PTCLDY    70  50  49 W3        29.83S
OSHKOSH        CLEAR     70  57  63 CALM      29.83S
$$

WIZ032>034-041-042-053>061-280200-
SOUTHWEST WISCONSIN

CITY           SKY/WX    TMP DP  RH WIND       PRES   REMARKS
LA CROSSE      LGT RAIN  62  56  80 N3        29.88S
SPARTA         CLOUDY    64  54  69 NW3       29.89S
VIROQUA        CLOUDY    64  53  66 SW5       29.89F
BOSCOBEL       LGT RAIN  65  59  81 CALM      29.87F
PRAIRIE DU CHI LGT RAIN  64  60  87 NW5       29.87S
PLATTEVILLE    CLOUDY    67  64  90 W10       29.88S
$$

WIZ056-057-062-063-064-067-068-280200-
SOUTH CENTRAL WISCONSIN

CITY           SKY/WX    TMP DP  RH WIND       PRES   REMARKS
REEDSBURG      CLOUDY    68  55  61 CALM      29.87S
BARABOO/DELLS  CLOUDY    67  53  59 CALM      29.87S
LONE ROCK      CLOUDY    69  59  70 CALM      29.86F
MINERAL POINT  LGT RAIN  68  59  73 CALM      29.87F
MADISON        CLOUDY    70  55  59 W3        29.85S
MIDDLETON      CLOUDY    67  58  73 W5        29.87S
WATERTOWN      CLOUDY    71  58  64 CALM      29.84S
MONROE         RAIN      68  59  73 CALM      29.87R
JANESVILLE     CLOUDY    73  64  73 CALM      29.85S
$$

WIZ051-052-058>065-066-070>072-280200-
SOUTHEAST WISCONSIN

CITY           SKY/WX    TMP DP  RH WIND       PRES   REMARKS
MILWAUKEE      CLOUDY    64  52  64 SE6       29.86S
WAUKESHA       PTCLDY    66  55  68 SE9       29.87R
MILWAUKEE/TIMM PTCLDY    66  50  55 SE5       29.86S
RACINE         PTCLDY    62  50  64 S3        29.88R
KENOSHA        PTCLDY    65  53  65 SE5       29.86S
FOND DU LAC    CLOUDY    71  49  45 SW5       29.84S
SHEBOYGAN      CLEAR     64  55  72 S9        29.85R
WEST BEND      CLOUDY    64  54  68 S3        29.86R
JUNEAU         CLOUDY    68  57  68 CALM      29.87R
$$

LSZ147-162-280200-
LAKE SUPERIOR

STATION/POSITION TIME  TEMP    WIND        PRES    WAVE
                       AIR SEA DIR/SP/G            HT/PER
                 (UTC) (F)     (DEG/KT/KT) (MB)    (FT/S)
W MID LAKE BUOY  0050   52 37  200/ 10/ 10 1008.8R   0
DEVILS ISLAND    0000   68     190/  6/  8 1007.8F
SAXON HARBOR     0040   71     170/  2/  3 1008.8S
$$

LMZ867-665-643>646-280200-
LAKE MICHIGAN

STATION/POSITION TIME  TEMP    WIND        PRES    WAVE
                       AIR SEA DIR/SP/G            HT/PER
                 (UTC) (F)     (DEG/KT/KT) (MB)    (FT/S)
CHAMBERS ISLAND  0040   65     150/  5/ 11 1009.1R
N MID LAKE BUOY  0050   47 42  180/ 10/ 12 1011.4R   0
NORTHPORT PIER   0040   62     160/  6/ 13 1009.8R
KEWAUNEE LAKESHO 0048   59     170/ 10/ 11 1010.1F
SHEBOYGAN LAKESH 0100   60     190/  7/  9 1010.7R
PORT WASHINGTON  0040   58     190/  5/  6 1012.2S
ATWATER BUOY     0009   54     180/  8/ 10 1011.5R
MILWAUKEE LAKESH 0050   56     150/  3/  3   N/A
S MID LAKE BUOY  0050   57 52   80/  4/  6 1011.4S   0
KENOSHA   LAKESH 0100   59     190/  3/  4 1010.8
$$

TC  - TEMPERATURE IN CELSIUS
VSB - VISIBILITY IN STATUTE MILES
WCI - WIND CHILL INDEX
HX  - HEAT INDEX





USA.gov is the U.S. government's official web portal to all federal, state and local government web resources and services.